Flag for U.S.A. Weather past 2 weeks in Sheboygan, Wisconsin, U.S.A.

Now
62 °F

Fog.


Feels Like: 62 °F
Forecast: 61 / 76 °F
Wind: 5 mph from Southeast

Location: Sheboygan County Memorial Airport

Current Time: Jul 6, 2015 at 4:22:24 AM

Latest Report: Jul 6, 2015 at 3:53 AM


Visibility: 5 mi

Pressure: 29.94 "Hg

Humidity: 90%

Dew point: 59 °F

Location of SheboyganLocation

Historic Weather in Sheboygan — Graph

°F

Sheboygan temperature yesterday

Maximum temperature yesterday: 79 °F (at 11:53 AM)
Minimum temperature yesterday: 60 °F (at 1:53 AM)
Average temperature yesterday: 70 °F

Past Weeks' High & Low Weather Summary

 TemperatureHumidityPressure
High83 °F (Jun 22, 3:53 PM)97% (Jun 22, 4:53 AM)30.14 "Hg (Jun 22, 4:53 AM)
Low46 °F (Jul 2, 12:02 AM)42% (Jun 24, 11:53 AM)29.61 "Hg (Jun 22, 2:53 PM)
Average65 °F73%29.95 "Hg
* Reported Jun 21 2:53 AM — Jul 6 2:53 AM, Sheboygan, Weather by CustomWeather, © 2015

Note: Actual official high and low records may vary slightly from our data, if they occured in-between our weather recording intervals... More about our weather records

Advertising

Sheboygan weather history for previous 24 hours

 ConditionsComfort  
Time TempWeatherWind HumidityBarometerVisibility
2:53 AM
Mon, Jul 6
59 °FFog.No wind96%29.97 "Hg4 mi
1:53 AM60 °FFog.No wind93%29.98 "Hg5 mi
12:53 AM63 °FClear.6 mph87%29.95 "Hg7 mi
11:53 PM
Sun, Jul 5
64 °FClear.5 mph81%29.95 "Hg8 mi
10:53 PM67 °FClear.9 mph76%29.95 "Hg9 mi
9:53 PM68 °FClear.8 mph73%29.99 "Hg10 mi
8:53 PM70 °FSunny.9 mph68%29.98 "Hg9 mi
7:53 PM72 °FSunny.7 mph66%29.99 "Hg9 mi
6:53 PM73 °FSunny.9 mph64%29.99 "Hg10 mi
5:53 PM75 °FSunny.14 mph60%30.01 "Hg10 mi
4:53 PM75 °FSunny.15 mph62%30.02 "Hg10 mi
3:53 PM76 °FSunny.12 mph62%30.02 "Hg10 mi
2:53 PM77 °FSunny.14 mph60%30.03 "Hg10 mi
1:53 PM77 °FSunny.12 mph62%30.03 "Hg10 mi
12:53 PM79 °FPartly sunny.10 mph60%30.05 "Hg10 mi
11:53 AM79 °FPassing clouds.9 mph56%30.06 "Hg10 mi
10:53 AM78 °FSunny.8 mph60%30.05 "Hg10 mi
9:53 AM76 °FSunny.7 mph64%30.05 "Hg10 mi
8:53 AM73 °FSunny.6 mph71%30.06 "Hg10 mi
7:53 AM69 °FSunny.5 mph81%30.06 "Hg9 mi
6:53 AM64 °FFog.No wind90%30.06 "Hg4 mi
5:53 AM60 °FFog.No wind93%30.05 "Hg3 mi
4:53 AM60 °FFog.No wind93%30.03 "Hg6 mi
Weather by CustomWeather, © 2015

See weather overviewHow to use our weather pages